Volver al catálogo

STARLINK-33930

ActivoComunicacionesVLEO
NORAD 63776·PAYLOAD·🇺🇸 United States

Lanzado May 2, 2025 desde Cape Canaveral Space Force Station

Loading…

Próximos Pases (próximas 24 horas)

TLE

ActualizadoSource: CelesTrak SupGP

Época: Sep 14, 2026, 21:27 UTC

1 63776C 25091B   26257.89423611  .00056531  00000+0  20478-2 0  2571
2 63776  43.0002  64.3123 0001405 273.6408 135.6122 15.27545867    10

Sigue STARLINK-33930 en tiempo real con AllMySat

Download on the App Store